Location: Chuignes
(49.9004°N, 2.7515°E)
Time: 00:22:06
(UTC+00:00)

Daily predictions for brighter satellites

Satellite Brightness Start Highest point End
(mag) Time Altitude Azimuth Time Altitude Azimuth Time Altitude Azimuth
ATLAS CENTAUR R/B 3.9 00:07:30 11° SW 00:13:08 89° NNW 00:29:09 10° ENE
Cosmos 1825 3.5 00:13:02 21° SE 00:14:38 29° E 00:17:56 10° NNE
Cosmos 1812 Rocket 4.3 00:13:29 10° NNW 00:17:35 41° W 00:19:25 27° SW
Cosmos 990 Rocket 4.0 00:13:59 10° NNW 00:19:13 85° ENE 00:22:37 22° SSE
Cosmos 1408 2.9 00:19:18 34° SSE 00:20:39 58° E 00:24:17 10° NNE
SL-16 R/B 2.4 00:19:56 20° SW 00:23:57 69° WNW 00:29:39 10° NNE
Cosmos 1656 Rocket 4.0 00:19:07 10° NNW 00:24:49 65° ENE 00:30:16 11° SE
Cosmos 405 Rocket 3.4 00:23:36 28° SE 00:25:02 41° E 00:28:32 10° NNE
Cosmos 2221 3.7 00:21:15 10° N 00:25:17 37° ENE 00:28:24 15° SE
Cosmos 2058 4.1 00:24:22 20° SE 00:26:27 32° E 00:30:07 10° NNE
USA 229 DEB 3.7 00:22:35 24° SSW 00:26:32 62° SE 00:33:18 10° NE
USA 229 3.7 00:22:43 24° SSW 00:26:38 61° SE 00:33:24 10° NE
X-37B 2.5 00:28:47 18° ESE 00:28:47 18° ESE 00:29:55 10° ESE
Cosmos 2237 Rocket 3.8 00:22:23 10° WSW 00:27:18 30° NW 00:32:16 10° NNE
Cosmos 1898 Rocket 3.5 00:27:14 10° NNW 00:32:32 88° ENE 00:36:10 20° SSE
Cosmos 1937 Rocket 3.8 00:27:28 10° NNW 00:32:49 68° ENE 00:37:19 14° SE
NOSS 8 (F) 4.0 00:34:00 43° SSW 00:34:52 75° SE 00:37:50 10° NE
Cosmos 2369 Rocket 2.2 00:29:14 10° NNW 00:34:58 76° WSW 00:38:58 20° SSE
NOSS 3-1 (C) 3.3 00:31:11 19° SW 00:35:12 85° NW 00:41:43 10° NE
YAOGAN 11 4.2 00:35:34 22° SSE 00:38:23 76° ENE 00:42:54 10° NNW
SJ 16-02 2.6 00:34:53 10° NW 00:38:36 27° W 00:40:01 23° SW
Cosmos 1356 3.3 00:37:29 39° SSW 00:38:39 90° WNW 00:42:04 10° NNE
FALCON 9 DEB 4.0 00:35:47 10° WNW 00:38:50 45° N 00:41:52 10° E
CREW DRAGON DEMO-1 DEB 3.3 00:40:05 34° ESE 00:40:05 34° ESE 00:41:48 10° E
GP-B 4.2 00:35:33 10° NNW 00:39:33 34° W 00:41:51 21° SW
NOSS 2-3 (E) 3.6 00:42:31 23° SW 00:45:09 81° NW 00:50:12 10° NE
USA 215 3.7 00:39:32 10° ENE 00:45:59 63° NNW 00:52:26 10° W
NOSS 3-1 (A) 3.3 00:42:41 24° SSW 00:46:08 73° SE 00:52:33 10° NE
Cosmos 1825 Rocket 3.9 00:45:41 26° SW 00:48:02 56° WNW 00:52:26 10° N
Cosmos 2263 4.1 00:42:55 10° NNW 00:48:39 79° WSW 00:53:06 17° SSE
ATLAS 5 CENTAUR R/B 3.4 00:48:04 13° SE 00:49:34 16° ESE 00:52:07 10° ENE
CZ-4 R/B 4.0 00:46:10 10° NNE 00:50:49 65° ESE 00:53:33 24° S
Helios 1B rocket 4.4 00:48:11 10° NE 00:51:20 21° E 00:54:08 11° SE
Cosmos 1932 4.4 00:47:46 10° NW 00:53:59 72° SW 01:00:03 10° SSE
USA 308 4.5 00:53:27 18° SSE 00:54:21 20° SE 00:57:27 10° E
Cosmos 1633 4.3 00:53:22 14° SE 00:55:30 23° E 00:58:22 10° NE
Meteor 2-2 Rocket 4.4 00:49:31 10° NNW 00:55:36 87° W 01:00:07 19° S
FALCON 9 DEB 3.7 00:52:57 10° WNW 00:55:59 52° N 00:59:00 10° E
CZ-3B R/B 3.6 00:45:05 10° W 00:56:40 55° N 01:00:05 10° ENE
Cosmos 1606 3.3 00:57:39 10° N 01:01:26 52° ENE 01:04:12 17° SSE
NOSS 8 (H) 4.0 01:00:24 35° SW 01:01:32 81° SE 01:04:29 10° NE
Helios 1A 2.9 01:00:06 25° S 01:02:28 72° WSW 01:06:41 10° NNW
FALCON 9 DEB 3.8 00:59:41 10° WNW 01:02:45 50° N 01:05:49 10° E
Cosmos 468 Rocket 4.0 01:00:57 23° SSW 01:04:15 77° WNW 01:09:31 10° NNE
FALCON 9 DEB 3.6 01:03:10 10° WNW 01:06:15 54° NNE 01:09:18 10° E
SL-16 R/B 2.8 01:00:10 10° SSE 01:06:18 69° ENE 01:12:27 10° NNW
Cosmos 372 Rocket 4.1 01:02:32 10° NNW 01:07:49 77° ENE 01:13:04 10° SSE
USA 305 4.1 01:10:31 22° S 01:12:02 27° SE 01:15:40 10° ENE
USA 290 4.0 01:11:15 17° SE 01:12:47 23° ESE 01:15:25 10° NE
Cosmos 1953 Rocket 4.1 01:10:29 22° SW 01:12:58 47° WNW 01:17:15 10° N
Lacrosse 4 Rocket 1.9 01:09:57 10° NNW 01:14:02 58° NE 01:18:01 10° SE
Cosmos 1092 Rocket 4.4 01:11:05 15° SSE 01:16:04 58° E 01:22:05 10° NNE
Cosmos 2098 Rocket 3.3 01:15:08 20° S 01:18:52 86° E 01:23:13 10° N
Cosmos 1763 Rocket 3.7 01:15:44 20° SW 01:19:14 60° WNW 01:24:21 10° NNE
BREEZE-M R/B 3.8 01:18:11 20° S 01:19:27 25° SE 01:23:16 10° E
Resurs 1-4 Rocket 2.5 01:15:04 10° NNE 01:20:21 60° ESE 01:24:24 17° S
Cosmos 1437 Rocket 3.1 01:16:41 10° NNW 01:20:26 46° W 01:22:19 25° SSW
USA 267 4.3 01:19:19 19° SSW 01:21:45 23° SW 01:26:50 10° WNW
Cosmos 1892 4.3 01:21:02 16° WSW 01:23:13 25° WNW 01:26:27 10° NNW
SL-4 R/B 2.1 01:21:30 10° W 01:25:15 65° N 01:28:48 10° E
Cosmos 1943 Rocket 3.8 01:24:06 10° WNW 01:27:29 17° W 01:29:31 14° SW
Cosmos 1842 Rocket 3.8 01:26:17 10° NNW 01:30:31 52° W 01:33:14 21° SSW
NPP 4.0 01:26:11 10° NNE 01:31:32 60° ESE 01:35:57 15° S
ADEOS II 3.2 01:27:00 10° NNE 01:31:53 37° E 01:36:43 10° SSE
NOSS 2-2 (D) 4.1 01:30:21 20° S 01:32:04 32° ESE 01:35:24 10° ENE
Lacrosse 5 rocket 2.8 01:30:46 10° NW 01:34:05 34° NNE 01:37:27 10° E
USA 306 3.6 01:32:05 21° SSW 01:34:18 37° SE 01:38:14 10° ENE
Cosmos 921 Rocket 2.9 01:32:38 21° SSW 01:35:23 80° ESE 01:39:36 10° NNE
Exosat Rocket 4.2 01:30:27 16° SW 01:35:31 57° WNW 01:40:37 10° NNE
FALCON 9 DEB 3.2 01:32:23 10° WNW 01:35:42 52° SSW 01:39:00 10° SE
Cosmos 1943 3.3 01:33:25 18° SW 01:37:43 71° WNW 01:43:23 10° NNE
CZ-2D R/B 2.1 01:33:52 10° NNE 01:39:07 81° ESE 01:43:15 17° SSW
MOZ.5/SAFIR/RUBIN 5/SL-8 4.4 01:38:05 19° SSW 01:41:03 40° W 01:45:35 10° NNW
IDEFIX/ARIANE 42P 4.2 01:41:41 10° NE 01:46:11 28° E 01:50:37 10° SSE
Cosmos 1603 4.0 01:41:52 16° SW 01:46:28 60° WNW 01:52:05 10° NNE
Cosmos 2151 3.2 01:44:56 15° S 01:48:22 65° E 01:52:33 10° NNE
Cosmos 1825 3.7 01:47:48 14° WSW 01:50:06 24° WNW 01:53:16 10° NNW
AQUA 4.0 01:46:24 10° NNE 01:51:11 71° ESE 01:55:17 14° S
Cosmos 1076 Rocket 3.6 01:49:45 18° SSW 01:52:49 67° W 01:57:05 10° N
Cosmos 1437 2.9 01:51:45 10° NNW 01:54:25 41° W 01:55:52 22° SSW
Cosmos 1242 Rocket 3.6 01:54:55 10° NNW 01:58:04 29° W 02:00:05 17° SW
Cosmos 540 Rocket 4.0 01:55:00 15° SW 01:59:07 50° WNW 02:04:07 10° NNE
DELTA 2 R/B (1) 4.5 01:57:41 14° SW 02:01:30 28° S 02:06:10 10° ESE
Cosmos 2221 3.9 01:59:10 10° NW 02:02:39 24° W 02:05:13 14° SW
X-37B 1.5 02:01:04 14° WSW 02:03:18 29° S 02:06:07 10° SE
Cosmos 2058 4.3 02:00:33 13° WSW 02:03:23 26° WNW 02:06:52 10° NNW
BREEZE-M DEB (TANK) 1.1 02:03:11 10° W 02:05:46 70° S 02:08:07 10° ESE
IRS-1D 4.1 02:00:53 10° NNE 02:05:56 54° E 02:10:53 10° S
Cosmos 841 Rocket 4.0 02:03:07 14° SW 02:07:26 50° WNW 02:12:27 10° NNE
SL-16 R/B 4.4 02:05:15 10° W 02:09:10 19° NW 02:13:06 10° N
Cosmos 1553 Rocket 4.1 02:03:09 10° N 02:09:31 85° E 02:15:43 10° S
NOSS 2-2 (E) 3.1 02:08:03 16° SW 02:10:47 83° NW 02:14:44 10° NE
Cosmos 2292 Rocket 2.9 02:09:53 12° S 02:12:33 62° E 02:15:33 10° NNE
CREW DRAGON DEMO-1 DEB 2.9 02:10:40 10° W 02:13:06 56° N 02:15:31 10° ENE
FALCON 9 DEB 2.8 02:11:33 10° WNW 02:14:42 81° SSW 02:17:50 10° ESE
S3M 4.4 02:09:24 10° N 02:15:33 66° ENE 02:21:43 10° SSE
Cosmos 1782 3.0 02:12:09 10° N 02:16:11 76° E 02:20:11 10° SSE
USA 307 3.0 02:14:12 13° SW 02:17:54 65° SSE 02:22:07 10° ENE
Cosmos 2369 Rocket 4.1 02:15:23 10° WNW 02:18:00 13° W 02:20:37 10° WSW
Cosmos 1271 Rocket 3.4 02:14:24 10° N 02:18:05 53° ENE 02:21:45 10° SSE
USA 281 3.4 02:12:13 10° SE 02:18:47 79° ENE 02:25:24 10° NNW
Cosmos 2026 Rocket 4.2 02:16:00 12° SSW 02:21:51 63° WNW 02:28:12 10° N
NOSS 2-2 (C) 3.1 02:21:26 13° SW 02:24:27 80° NW 02:28:20 10° NE
Aureole 3 Rocket 4.2 02:21:07 10° NW 02:24:30 28° W 02:28:38 11° SSW
CZ-4C R/B 3.4 02:22:34 10° SSE 02:25:59 66° ENE 02:29:27 10° N
Helios 1B rocket 3.1 02:22:52 10° N 02:26:46 43° WNW 02:30:26 11° SW
ERBS 3.8 02:24:39 11° S 02:27:13 24° SE 02:29:53 10° ENE
USA 215 4.3 02:22:18 10° ENE 02:28:31 48° N 02:34:44 10° WNW
Cosmos 1633 3.9 02:27:25 11° SW 02:30:10 26° WNW 02:33:13 10° NNW
Cosmos 1328 Rocket 3.8 02:25:48 10° N 02:30:10 74° E 02:34:32 10° SSE
NOSS 3-2 (A) 4.3 02:23:04 10° NW 02:30:23 76° NE 02:38:49 10° SE
SL-19 R/B 4.3 02:26:11 10° N 02:31:23 63° WNW 02:36:44 10° SSW
FALCON 9 DEB 3.0 02:28:36 10° WNW 02:31:37 48° SSW 02:34:35 10° SE
Cosmos 2298 Rocket 4.3 02:27:51 10° NNW 02:33:01 50° WSW 02:38:08 10° S
ATLAS 5 CENTAUR R/B 1.6 02:29:34 11° SW 02:33:26 73° NW 02:38:01 10° NE
USA 308 2.9 02:29:34 10° WSW 02:33:49 78° SSE 02:38:05 10° ENE
SeaSat 1 3.5 02:30:46 10° NE 02:35:25 40° ESE 02:40:02 10° S
FALCON 9 DEB 2.9 02:35:26 10° WNW 02:38:30 54° SSW 02:41:32 10° SE
FALCON 9 DEB 3.2 02:38:53 10° WNW 02:41:52 43° SSW 02:44:48 10° SE
ADEOS Rocket 3.6 02:34:50 10° S 02:41:52 51° W 02:48:16 10° NNW
Cosmos 1933 4.2 02:39:37 10° NNW 02:43:18 33° W 02:46:57 10° SSW
Cosmos 2150 Rocket 4.4 02:39:37 10° NW 02:44:32 43° WSW 02:49:27 10° S
USA 290 3.8 02:44:24 10° WSW 02:47:08 25° WNW 02:49:52 10° N
Cosmos 1833 Rocket 4.3 02:43:37 10° SSE 02:48:22 29° ESE 02:53:10 10° NE
Meteor 1-28 Rocket 3.8 02:46:50 10° SSW 02:50:23 39° W 02:54:00 10° NNW
SL-16 R/B 3.7 02:45:29 10° SW 02:50:27 25° W 02:55:25 10° NW
USA 305 3.0 02:47:23 10° WSW 02:51:39 83° NNW 02:55:56 10° ENE
Lacrosse 4 Rocket 2.9 02:49:29 10° WNW 02:52:16 18° WSW 02:55:01 10° SSW
Cosmos 1125 Rocket 3.9 02:47:26 10° NW 02:52:26 45° WSW 02:57:25 10° S
Cosmos 1151 Rocket 3.3 02:49:38 10° NNW 02:53:48 50° W 02:57:54 10° S
Meteor 1-29 4.1 02:53:51 10° N 02:56:54 31° WNW 02:59:56 10° SW
Cosmos 2266 Rocket 4.1 02:51:25 10° S 02:57:31 84° E 03:03:36 10° N
CZ-4B R/B 4.2 02:53:08 10° NNE 02:58:22 56° E 03:03:29 10° S
ARIANE 5 R/B 3.0 02:54:34 10° NNE 02:59:32 59° ESE 03:04:28 10° S
Resurs 1-4 Rocket 3.5 02:55:31 10° N 02:59:49 25° WNW 03:04:06 10° WSW
Cosmos 1515 Rocket 3.7 02:56:52 10° N 03:01:19 87° ENE 03:05:46 10° S
